QPF
0.00 0.00 0.00 0.00 0.00 0.00 0.00 0.01 0.01 0.00 0.00 0.00 0.01 0.00 0.01 0.01 0.03 0.08 0.13 0.23 0.25 0.24 0.22 0.16 0.17 0.13 0.10 0.09 0.09 0.09 0.11 0.14 0.14 0.12 0.10 0.09 0.09 0.07 0.06 0.07 0.07 0.07 0.08 0.08 0.09 0.10 0.11 0.11 0.08
0.00 0.00 0.00 0.00 0.00 0.01 0.01 0.01 0.01 0.01 0.00 0.00 0.00 0.00 0.01 0.01 0.03 0.09 0.12 0.16 0.19 0.17 0.15 0.12 0.14 0.14 0.13 0.09 0.08 0.09 0.11 0.14 0.13 0.09 0.09 0.08 0.07 0.07 0.08 0.08 0.08 0.08 0.10 0.09 0.11 0.11 0.11 0.08 0.06
0.01 0.00 0.00 0.00 0.00 0.01 0.01 0.01 0.00 0.00 0.00 0.00 0.00 0.00 0.00 0.01 0.04 0.09 0.09 0.09 0.12 0.14 0.12 0.12 0.12 0.10 0.11 0.09 0.08 0.08 0.12 0.15 0.12 0.08 0.08 0.07 0.05 0.07 0.08 0.11 0.13 0.12 0.12 0.14 0.14 0.13 0.11 0.06 0.05
0.00 0.00 0.00 0.00 0.01 0.01 0.00 0.00 0.00 0.00 0.00 0.00 0.00 0.01 0.00 0.02 0.06 0.09 0.08 0.07 0.08 0.11 0.12 0.10 0.08 0.07 0.09 0.09 0.08 0.08 0.10 0.17 0.15 0.09 0.08 0.07 0.07 0.08 0.09 0.12 0.15 0.16 0.18 0.20 0.16 0.13 0.09 0.06 0.05
0.00 0.00 0.00 0.00 0.01 0.01 0.00 0.00 0.00 0.00 0.00 0.00 0.01 0.01 0.02 0.03 0.06 0.08 0.08 0.07 0.05 0.07 0.09 0.07 0.07 0.07 0.08 0.09 0.08 0.08 0.11 0.20 0.19 0.12 0.10 0.09 0.09 0.10 0.11 0.12 0.17 0.21 0.19 0.16 0.13 0.10 0.08 0.06 0.06
0.00 0.00 0.00 0.00 0.00 0.00 0.00 0.00 0.00 0.00 0.00 0.00 0.01 0.01 0.03 0.04 0.07 0.07 0.07 0.05 0.04 0.05 0.05 0.05 0.06 0.07 0.09 0.11 0.10 0.11 0.19 0.24 0.21 0.15 0.12 0.11 0.11 0.11 0.11 0.11 0.12 0.15 0.14 0.12 0.12 0.11 0.10 0.08 0.07
0.00 0.00 0.00 0.00 0.00 0.00 0.00 0.00 0.00 0.00 0.00 0.00 0.01 0.02 0.04 0.06 0.09 0.09 0.06 0.05 0.04 0.04 0.04 0.04 0.05 0.07 0.11 0.13 0.14 0.17 0.26 0.25 0.25 0.24 0.17 0.13 0.11 0.10 0.09 0.09 0.11 0.14 0.15 0.13 0.12 0.12 0.09 0.07 0.06
0.00 0.00 0.00 0.00 0.00 0.00 0.00 0.00 0.00 0.00 0.00 0.00 0.01 0.02 0.04 0.07 0.08 0.08 0.07 0.05 0.03 0.03 0.03 0.03 0.04 0.05 0.06 0.09 0.17 0.24 0.26 0.25 0.27 0.27 0.23 0.17 0.13 0.09 0.08 0.09 0.13 0.15 0.14 0.13 0.11 0.10 0.06 0.05 0.06
0.00 0.00 0.00 0.00 0.00 0.00 0.00 0.00 0.00 0.00 0.00 0.00 0.01 0.01 0.03 0.05 0.06 0.06 0.05 0.04 0.03 0.02 0.02 0.02 0.03 0.04 0.09 0.19 0.28 0.26 0.25 0.27 0.27 0.31 0.30 0.22 0.17 0.12 0.11 0.13 0.16 0.16 0.15 0.11 0.08 0.07 0.06 0.06 0.07
0.00 0.00 0.00 0.00 0.00 0.00 0.00 0.00 0.00 0.00 0.00 0.01 0.01 0.01 0.03 0.04 0.05 0.05 0.06 0.05 0.04 0.03 0.02 0.02 0.03 0.07 0.14 0.19 0.18 0.16 0.17 0.19 0.20 0.20 0.19 0.19 0.19 0.18 0.15 0.15 0.18 0.18 0.16 0.12 0.09 0.07 0.05 0.05 0.05
0.00 0.00 0.00 0.00 0.00 0.00 0.00 0.00 0.00 0.00 0.00 0.00 0.01 0.01 0.02 0.03 0.05 0.06 0.06 0.05 0.05 0.03 0.02 0.02 0.03 0.07 0.10 0.09 0.07 0.09 0.11 0.13 0.12 0.13 0.14 0.15 0.14 0.15 0.13 0.12 0.13 0.15 0.12 0.09 0.07 0.05 0.04 0.04 0.04
0.00 0.00 0.00 0.00 0.00 0.00 0.00 0.00 0.00 0.00 0.00 0.00 0.00 0.00 0.01 0.02 0.03 0.04 0.05 0.05 0.05 0.04 0.03 0.04 0.03 0.05 0.05 0.05 0.06 0.06 0.07 0.08 0.09 0.11 0.10 0.11 0.11 0.11 0.08 0.08 0.09 0.10 0.09 0.08 0.06 0.05 0.05 0.06 0.05
0.00 0.00 0.00 0.00 0.00 0.00 0.00 0.00 0.00 0.01 0.00 0.00 0.00 0.00 0.00 0.01 0.02 0.03 0.04 0.04 0.04 0.03 0.03 0.03 0.04 0.04 0.05 0.08 0.09 0.05 0.06 0.06 0.06 0.07 0.06 0.06 0.08 0.08 0.06 0.06 0.07 0.06 0.06 0.06 0.08 0.08 0.07 0.08 0.09
0.00 0.00 0.00 0.00 0.00 0.00 0.00 0.00 0.01 0.01 0.00 0.00 0.00 0.00 0.00 0.00 0.01 0.02 0.03 0.03 0.02 0.02 0.02 0.02 0.03 0.04 0.06 0.08 0.07 0.06 0.06 0.06 0.05 0.05 0.05 0.04 0.06 0.06 0.05 0.06 0.05 0.05 0.06 0.06 0.08 0.08 0.08 0.07 0.07
0.00 0.00 0.00 0.00 0.00 0.00 0.00 0.00 0.01 0.01 0.00 0.00 0.00 0.00 0.00 0.00 0.00 0.01 0.01 0.01 0.01 0.02 0.02 0.03 0.03 0.04 0.05 0.05 0.04 0.05 0.06 0.06 0.06 0.06 0.05 0.04 0.05 0.06 0.07 0.06 0.05 0.04 0.05 0.08 0.07 0.07 0.07 0.07 0.06
0.00 0.00 0.00 0.00 0.00 0.00 0.00 0.01 0.00 0.00 0.01 0.00 0.00 0.00 0.00 0.01 0.00 0.00 0.00 0.00 0.01 0.01 0.02 0.02 0.02 0.02 0.03 0.04 0.04 0.04 0.06 0.07 0.08 0.07 0.05 0.03 0.03 0.05 0.06 0.06 0.05 0.05 0.06 0.08 0.08 0.06 0.07 0.07 0.07
0.00 0.00 0.00 0.00 0.00 0.00 0.00 0.00 0.00 0.00 0.00 0.01 0.00 0.00 0.00 0.00 0.01 0.00 0.00 0.01 0.01 0.01 0.01 0.01 0.01 0.01 0.02 0.04 0.04 0.04 0.05 0.06 0.07 0.06 0.05 0.04 0.05 0.05 0.07 0.06 0.04 0.04 0.04 0.06 0.05 0.07 0.05 0.05 0.05
0.00 0.00 0.00 0.00 0.00 0.00 0.00 0.00 0.00 0.00 0.00 0.01 0.00 0.00 0.00 0.01 0.01 0.01 0.00 0.00 0.00 0.00 0.01 0.01 0.01 0.02 0.03 0.04 0.04 0.04 0.05 0.05 0.04 0.05 0.05 0.05 0.05 0.04 0.05 0.05 0.04 0.04 0.04 0.05 0.05 0.07 0.06 0.05 0.05
0.00 0.00 0.00 0.00 0.00 0.00 0.00 0.00 0.00 0.00 0.00 0.00 0.01 0.00 0.00 0.00 0.01 0.01 0.00 0.00 0.00 0.00 0.00 0.01 0.01 0.02 0.04 0.05 0.04 0.05 0.07 0.04 0.04 0.04 0.05 0.05 0.03 0.03 0.05 0.05 0.06 0.05 0.06 0.06 0.05 0.06 0.05 0.05 0.05
0.00 0.00 0.00 0.00 0.00 0.00 0.00 0.00 0.00 0.00 0.00 0.00 0.01 0.00 0.00 0.00 0.01 0.01 0.00 0.00 0.00 0.00 0.00 0.01 0.01 0.01 0.02 0.03 0.03 0.04 0.04 0.03 0.05 0.05 0.05 0.04 0.04 0.05 0.04 0.06 0.05 0.05 0.05 0.04 0.04 0.05 0.06 0.04 0.03
0.00 0.00 0.00 0.00 0.00 0.00 0.00 0.00 0.00 0.00 0.00 0.00 0.00 0.00 0.00 0.00 0.00 0.00 0.00 0.00 0.00 0.00 0.00 0.00 0.00 0.01 0.01 0.02 0.03 0.03 0.02 0.03 0.04 0.04 0.04 0.04 0.04 0.05 0.05 0.05 0.05 0.05 0.04 0.04 0.04 0.04 0.05 0.05 0.04
0.00 0.00 0.00 0.00 0.00 0.00 0.00 0.00 0.00 0.00 0.00 0.00 0.00 0.00 0.00 0.00 0.00 0.00 0.00 0.00 0.00 0.00 0.00 0.00 0.00 0.01 0.01 0.02 0.04 0.04 0.03 0.03 0.05 0.05 0.05 0.04 0.04 0.04 0.04 0.04 0.04 0.04 0.04 0.05 0.04 0.03 0.03 0.06 0.06
0.00 0.00 0.00 0.00 0.00 0.00 0.00 0.00 0.00 0.00 0.00 0.00 0.00 0.00 0.00 0.00 0.00 0.01 0.00 0.01 0.01 0.00 0.00 0.00 0.00 0.01 0.01 0.02 0.03 0.04 0.03 0.03 0.03 0.03 0.04 0.04 0.03 0.03 0.02 0.03 0.03 0.03 0.04 0.04 0.04 0.04 0.04 0.06 0.06
0.00 0.00 0.00 0.00 0.00 0.01 0.00 0.00 0.00 0.00 0.00 0.00 0.00 0.00 0.00 0.00 0.00 0.00 0.01 0.01 0.01 0.00 0.00 0.00 0.00 0.00 0.01 0.01 0.03 0.03 0.04 0.03 0.03 0.02 0.03 0.02 0.02 0.02 0.01 0.02 0.03 0.03 0.04 0.05 0.04 0.03 0.04 0.05 0.05
0.00 0.00 0.00 0.00 0.00 0.00 0.00 0.00 0.00 0.00 0.00 0.00 0.00 0.00 0.00 0.00 0.00 0.00 0.00 0.00 0.00 0.00 0.00 0.00 0.00 0.01 0.01 0.02 0.03 0.03 0.04 0.03 0.03 0.02 0.01 0.01 0.01 0.01 0.02 0.02 0.04 0.04 0.04 0.04 0.04 0.04 0.04 0.04 0.04
0.00 0.00 0.00 0.00 0.00 0.00 0.00 0.00 0.00 0.00 0.00 0.00 0.00 0.00 0.00 0.00 0.00 0.00 0.00 0.01 0.01 0.00 0.00 0.00 0.00 0.01 0.01 0.02 0.03 0.03 0.03 0.02 0.02 0.02 0.02 0.01 0.01 0.01 0.02 0.02 0.02 0.03 0.03 0.03 0.05 0.05 0.05 0.06 0.06
0.00 0.00 0.00 0.00 0.00 0.00 0.00 0.00 0.00 0.00 0.00 0.00 0.00 0.00 0.00 0.00 0.00 0.00 0.00 0.02 0.02 0.01 0.00 0.00 0.00 0.01 0.01 0.01 0.02 0.02 0.02 0.04 0.05 0.05 0.03 0.01 0.02 0.01 0.01 0.01 0.02 0.02 0.03 0.04 0.04 0.04 0.04 0.04 0.04
0.00 0.00 0.00 0.00 0.00 0.00 0.00 0.00 0.00 0.00 0.00 0.00 0.00 0.00 0.00 0.00 0.00 0.00 0.00 0.01 0.02 0.02 0.02 0.01 0.00 0.00 0.00 0.00 0.01 0.02 0.04 0.11 0.13 0.07 0.05 0.03 0.01 0.01 0.02 0.01 0.02 0.03 0.04 0.03 0.02 0.02 0.02 0.02 0.02
0.00 0.00 0.00 0.00 0.00 0.00 0.00 0.00 0.00 0.00 0.00 0.00 0.00 0.00 0.00 0.00 0.00 0.00 0.00 0.00 0.00 0.01 0.01 0.00 0.00 0.01 0.00 0.01 0.02 0.03 0.06 0.08 0.07 0.04 0.04 0.03 0.02 0.02 0.02 0.01 0.01 0.02 0.03 0.02 0.02 0.01 0.02 0.02 0.02
0.00 0.00 0.00 0.00 0.00 0.00 0.00 0.00 0.00 0.00 0.00 0.00 0.00 0.00 0.00 0.00 0.00 0.00 0.00 0.00 0.01 0.01 0.01 0.01 0.00 0.00 0.00 0.01 0.02 0.04 0.09 0.07 0.04 0.03 0.02 0.03 0.02 0.02 0.02 0.02 0.02 0.02 0.02 0.01 0.01 0.01 0.02 0.01 0.01
MSLP
1007.20 1007.89 1008.81 1009.87 1010.96 1011.94 1012.74 1013.31 1013.65 1013.82 1013.88 1013.91 1013.97 1014.07 1014.19 1014.28 1014.31 1014.23 1014.03 1013.76 1013.46 1013.19 1013.02 1012.96 1013.01 1013.12 1013.24 1013.30 1013.25 1013.08 1012.81 1012.47 1012.12 1011.82 1011.59 1011.43 1011.32 1011.22 1011.11 1010.97 1010.79 1010.61 1010.46 1010.37 1010.36 1010.44 1010.59 1010.77 1010.95
1007.46 1008.31 1009.38 1010.54 1011.67 1012.63 1013.35 1013.79 1013.99 1014.00 1013.93 1013.87 1013.87 1013.94 1014.06 1014.18 1014.24 1014.19 1014.03 1013.79 1013.52 1013.27 1013.12 1013.08 1013.16 1013.30 1013.45 1013.54 1013.53 1013.42 1013.20 1012.92 1012.64 1012.40 1012.21 1012.08 1011.99 1011.91 1011.79 1011.64 1011.46 1011.28 1011.13 1011.05 1011.06 1011.15 1011.29 1011.46 1011.60
1007.84 1008.84 1010.01 1011.23 1012.35 1013.25 1013.87 1014.18 1014.23 1014.11 1013.94 1013.80 1013.75 1013.81 1013.94 1014.08 1014.16 1014.14 1014.00 1013.77 1013.52 1013.29 1013.16 1013.15 1013.25 1013.43 1013.62 1013.76 1013.80 1013.74 1013.58 1013.36 1013.14 1012.94 1012.80 1012.70 1012.63 1012.54 1012.43 1012.28 1012.10 1011.93 1011.80 1011.74 1011.77 1011.87 1012.01 1012.15 1012.26
1008.28 1009.38 1010.62 1011.84 1012.92 1013.73 1014.23 1014.42 1014.35 1014.14 1013.90 1013.72 1013.66 1013.73 1013.87 1014.02 1014.11 1014.09 1013.96 1013.73 1013.48 1013.27 1013.16 1013.18 1013.32 1013.53 1013.76 1013.95 1014.04 1014.02 1013.91 1013.75 1013.57 1013.42 1013.31 1013.23 1013.17 1013.10 1012.99 1012.85 1012.69 1012.54 1012.43 1012.40 1012.45 1012.56 1012.70 1012.82 1012.89
1008.74 1009.89 1011.13 1012.31 1013.31 1014.03 1014.41 1014.50 1014.35 1014.09 1013.83 1013.65 1013.62 1013.71 1013.87 1014.03 1014.12 1014.09 1013.94 1013.71 1013.45 1013.25 1013.16 1013.20 1013.37 1013.62 1013.88 1014.10 1014.22 1014.24 1014.17 1014.04 1013.89 1013.77 1013.69 1013.63 1013.59 1013.53 1013.44 1013.31 1013.18 1013.06 1012.99 1012.99 1013.06 1013.18 1013.31 1013.40 1013.43
1009.17 1010.32 1011.51 1012.61 1013.50 1014.10 1014.39 1014.40 1014.22 1013.96 1013.73 1013.61 1013.62 1013.75 1013.94 1014.11 1014.19 1014.14 1013.97 1013.72 1013.46 1013.27 1013.19 1013.25 1013.45 1013.72 1013.99 1014.22 1014.35 1014.39 1014.33 1014.21 1014.09 1013.99 1013.92 1013.89 1013.86 1013.81 1013.74 1013.64 1013.53 1013.44 1013.41 1013.44 1013.53 1013.65 1013.77 1013.84 1013.82
1009.56 1010.65 1011.75 1012.73 1013.49 1013.99 1014.20 1014.17 1014.00 1013.79 1013.63 1013.59 1013.68 1013.86 1014.08 1014.26 1014.33 1014.26 1014.07 1013.81 1013.55 1013.36 1013.29 1013.37 1013.56 1013.83 1014.10 1014.32 1014.43 1014.45 1014.39 1014.28 1014.17 1014.08 1014.03 1014.01 1013.99 1013.97 1013.91 1013.83 1013.74 1013.68 1013.66 1013.71 1013.81 1013.93 1014.03 1014.07 1014.03
1009.91 1010.91 1011.88 1012.72 1013.35 1013.74 1013.90 1013.87 1013.73 1013.60 1013.54 1013.60 1013.78 1014.02 1014.28 1014.46 1014.52 1014.43 1014.23 1013.96 1013.71 1013.53 1013.47 1013.55 1013.74 1013.99 1014.23 1014.40 1014.48 1014.47 1014.39 1014.27 1014.16 1014.08 1014.05 1014.04 1014.05 1014.03 1013.99 1013.92 1013.84 1013.78 1013.76 1013.81 1013.90 1014.01 1014.10 1014.12 1014.05
1010.23 1011.12 1011.96 1012.65 1013.16 1013.45 1013.56 1013.55 1013.47 1013.44 1013.49 1013.65 1013.91 1014.21 1014.49 1014.67 1014.72 1014.63 1014.42 1014.16 1013.92 1013.76 1013.72 1013.80 1013.97 1014.18 1014.37 1014.50 1014.53 1014.47 1014.36 1014.23 1014.12 1014.06 1014.04 1014.06 1014.08 1014.07 1014.03 1013.95 1013.86 1013.79 1013.76 1013.78 1013.85 1013.95 1014.01 1014.02 1013.94
1010.55 1011.34 1012.03 1012.59 1012.98 1013.19 1013.28 1013.28 1013.28 1013.34 1013.49 1013.74 1014.06 1014.40 1014.69 1014.87 1014.91 1014.81 1014.61 1014.37 1014.16 1014.03 1014.01 1014.09 1014.24 1014.42 1014.55 1014.62 1014.59 1014.49 1014.35 1014.21 1014.11 1014.06 1014.06 1014.10 1014.13 1014.12 1014.07 1013.98 1013.86 1013.76 1013.69 1013.69 1013.73 1013.79 1013.84 1013.84 1013.76
1010.88 1011.58 1012.16 1012.59 1012.88 1013.03 1013.09 1013.12 1013.18 1013.32 1013.54 1013.86 1014.22 1014.57 1014.85 1015.02 1015.04 1014.95 1014.76 1014.56 1014.39 1014.29 1014.30 1014.39 1014.53 1014.67 1014.76 1014.76 1014.69 1014.55 1014.38 1014.24 1014.14 1014.11 1014.14 1014.19 1014.23 1014.22 1014.16 1014.04 1013.89 1013.75 1013.64 1013.59 1013.59 1013.63 1013.66 1013.65 1013.58
1011.24 1011.87 1012.34 1012.68 1012.88 1012.98 1013.03 1013.08 1013.19 1013.37 1013.65 1013.99 1014.35 1014.69 1014.95 1015.09 1015.10 1015.00 1014.85 1014.68 1014.56 1014.52 1014.56 1014.67 1014.80 1014.92 1014.97 1014.94 1014.82 1014.65 1014.48 1014.33 1014.24 1014.22 1014.26 1014.32 1014.37 1014.36 1014.29 1014.14 1013.96 1013.78 1013.63 1013.54 1013.50 1013.50 1013.52 1013.50 1013.43
1011.61 1012.17 1012.58 1012.83 1012.97 1013.03 1013.08 1013.15 1013.27 1013.49 1013.77 1014.11 1014.45 1014.75 1014.96 1015.07 1015.07 1014.98 1014.85 1014.73 1014.67 1014.67 1014.76 1014.89 1015.04 1015.14 1015.17 1015.11 1014.98 1014.80 1014.61 1014.46 1014.38 1014.37 1014.41 1014.48 1014.52 1014.51 1014.43 1014.27 1014.07 1013.86 1013.68 1013.55 1013.48 1013.46 1013.45 1013.42 1013.35
1011.96 1012.47 1012.81 1013.01 1013.11 1013.15 1013.19 1013.27 1013.40 1013.61 1013.89 1014.19 1014.48 1014.73 1014.89 1014.97 1014.95 1014.88 1014.78 1014.71 1014.70 1014.76 1014.89 1015.05 1015.21 1015.32 1015.34 1015.28 1015.14 1014.95 1014.76 1014.60 1014.52 1014.50 1014.54 1014.60 1014.64 1014.62 1014.54 1014.38 1014.18 1013.97 1013.78 1013.63 1013.54 1013.48 1013.45 1013.41 1013.33
1012.26 1012.72 1013.01 1013.17 1013.24 1013.27 1013.31 1013.39 1013.52 1013.71 1013.94 1014.20 1014.43 1014.62 1014.75 1014.80 1014.78 1014.72 1014.67 1014.65 1014.69 1014.80 1014.96 1015.15 1015.32 1015.44 1015.47 1015.41 1015.28 1015.09 1014.90 1014.73 1014.63 1014.59 1014.61 1014.65 1014.68 1014.66 1014.59 1014.45 1014.28 1014.08 1013.90 1013.75 1013.64 1013.57 1013.52 1013.45 1013.36
1012.47 1012.87 1013.11 1013.25 1013.31 1013.35 1013.39 1013.46 1013.57 1013.73 1013.91 1014.11 1014.29 1014.43 1014.53 1014.57 1014.57 1014.55 1014.55 1014.58 1014.66 1014.80 1014.99 1015.20 1015.38 1015.51 1015.55 1015.51 1015.38 1015.20 1015.01 1014.83 1014.70 1014.63 1014.61 1014.62 1014.64 1014.63 1014.58 1014.48 1014.34 1014.19 1014.03 1013.90 1013.79 1013.71 1013.63 1013.53 1013.41
1012.58 1012.91 1013.12 1013.24 1013.31 1013.35 1013.40 1013.46 1013.54 1013.65 1013.78 1013.92 1014.05 1014.16 1014.25 1014.31 1014.35 1014.39 1014.43 1014.51 1014.64 1014.80 1015.00 1015.20 1015.39 1015.52 1015.58 1015.56 1015.45 1015.29 1015.09 1014.91 1014.75 1014.64 1014.57 1014.55 1014.55 1014.54 1014.52 1014.47 1014.39 1014.29 1014.19 1014.08 1013.98 1013.88 1013.77 1013.65 1013.50
1012.57 1012.84 1013.02 1013.15 1013.23 1013.30 1013.35 1013.39 1013.43 1013.48 1013.54 1013.62 1013.70 1013.80 1013.90 1014.00 1014.11 1014.21 1014.33 1014.46 1014.62 1014.79 1014.99 1015.19 1015.36 1015.50 1015.57 1015.57 1015.49 1015.35 1015.17 1014.97 1014.79 1014.64 1014.53 1014.47 1014.45 1014.45 1014.47 1014.47 1014.46 1014.43 1014.37 1014.30 1014.21 1014.10 1013.96 1013.81 1013.63
1012.46 1012.68 1012.87 1013.02 1013.14 1013.22 1013.27 1013.29 1013.27 1013.24 1013.22 1013.23 1013.27 1013.35 1013.48 1013.65 1013.83 1014.03 1014.22 1014.41 1014.59 1014.78 1014.96 1015.14 1015.30 1015.43 1015.51 1015.54 1015.50 1015.40 1015.24 1015.05 1014.85 1014.67 1014.53 1014.44 1014.41 1014.42 1014.46 1014.52 1014.58 1014.61 1014.61 1014.57 1014.48 1014.36 1014.20 1014.01 1013.81
1012.30 1012.51 1012.72 1012.91 1013.08 1013.19 1013.23 1013.20 1013.10 1012.97 1012.84 1012.76 1012.75 1012.82 1012.99 1013.22 1013.50 1013.79 1014.07 1014.32 1014.53 1014.72 1014.89 1015.04 1015.18 1015.31 1015.41 1015.48 1015.49 1015.43 1015.32 1015.16 1014.97 1014.78 1014.62 1014.51 1014.46 1014.48 1014.55 1014.65 1014.76 1014.85 1014.89 1014.88 1014.80 1014.67 1014.48 1014.27 1014.05
1012.13 1012.36 1012.63 1012.90 1013.12 1013.25 1013.27 1013.17 1012.96 1012.70 1012.44 1012.25 1012.16 1012.22 1012.40 1012.70 1013.07 1013.46 1013.83 1014.15 1014.41 1014.60 1014.76 1014.88 1015.01 1015.14 1015.26 1015.37 1015.44 1015.46 1015.41 1015.29 1015.13 1014.95 1014.78 1014.65 1014.60 1014.62 1014.71 1014.84 1014.99 1015.12 1015.20 1015.21 1015.14 1014.99 1014.80 1014.57 1014.33
1012.01 1012.31 1012.67 1013.02 1013.30 1013.45 1013.43 1013.24 1012.90 1012.47 1012.06 1011.72 1011.54 1011.55 1011.74 1012.09 1012.55 1013.03 1013.49 1013.88 1014.18 1014.39 1014.55 1014.66 1014.78 1014.91 1015.07 1015.22 1015.36 1015.45 1015.47 1015.42 1015.30 1015.15 1014.98 1014.85 1014.79 1014.80 1014.90 1015.05 1015.22 1015.38 1015.48 1015.51 1015.45 1015.30 1015.10 1014.86 1014.63
1011.96 1012.37 1012.84 1013.29 1013.63 1013.78 1013.71 1013.40 1012.90 1012.30 1011.70 1011.21 1010.91 1010.85 1011.03 1011.41 1011.93 1012.51 1013.05 1013.51 1013.86 1014.11 1014.27 1014.38 1014.50 1014.65 1014.83 1015.04 1015.24 1015.41 1015.51 1015.52 1015.45 1015.33 1015.18 1015.05 1014.97 1014.97 1015.06 1015.21 1015.39 1015.56 1015.68 1015.72 1015.67 1015.54 1015.34 1015.11 1014.89
1012.00 1012.54 1013.12 1013.66 1014.04 1014.19 1014.04 1013.62 1012.96 1012.17 1011.39 1010.73 1010.30 1010.15 1010.30 1010.70 1011.27 1011.91 1012.54 1013.07 1013.48 1013.76 1013.95 1014.08 1014.21 1014.37 1014.58 1014.83 1015.09 1015.32 1015.49 1015.56 1015.55 1015.45 1015.32 1015.18 1015.09 1015.07 1015.14 1015.27 1015.45 1015.62 1015.75 1015.81 1015.78 1015.67 1015.49 1015.28 1015.08
1012.11 1012.76 1013.45 1014.06 1014.47 1014.59 1014.37 1013.83 1013.02 1012.06 1011.10 1010.29 1009.74 1009.50 1009.61 1010.00 1010.60 1011.30 1011.99 1012.60 1013.07 1013.41 1013.63 1013.79 1013.93 1014.11 1014.35 1014.63 1014.93 1015.20 1015.42 1015.54 1015.56 1015.49 1015.36 1015.22 1015.11 1015.07 1015.11 1015.22 1015.38 1015.55 1015.68 1015.76 1015.76 1015.68 1015.54 1015.36 1015.19
1012.22 1012.97 1013.73 1014.39 1014.80 1014.88 1014.59 1013.95 1013.01 1011.92 1010.84 1009.90 1009.24 1008.94 1008.99 1009.37 1009.99 1010.73 1011.47 1012.15 1012.68 1013.08 1013.35 1013.55 1013.72 1013.92 1014.17 1014.47 1014.78 1015.08 1015.32 1015.47 1015.52 1015.46 1015.34 1015.19 1015.06 1014.99 1015.00 1015.08 1015.22 1015.38 1015.52 1015.62 1015.65 1015.62 1015.52 1015.39 1015.24
1012.29 1013.10 1013.89 1014.55 1014.94 1014.98 1014.63 1013.90 1012.89 1011.72 1010.56 1009.56 1008.84 1008.48 1008.50 1008.86 1009.47 1010.23 1011.02 1011.75 1012.35 1012.80 1013.13 1013.38 1013.59 1013.81 1014.07 1014.37 1014.68 1014.99 1015.23 1015.39 1015.45 1015.40 1015.29 1015.14 1015.00 1014.90 1014.88 1014.94 1015.05 1015.20 1015.35 1015.46 1015.53 1015.54 1015.49 1015.40 1015.30
1012.29 1013.10 1013.87 1014.47 1014.81 1014.80 1014.41 1013.65 1012.62 1011.44 1010.27 1009.25 1008.52 1008.13 1008.13 1008.47 1009.08 1009.84 1010.65 1011.41 1012.07 1012.58 1012.97 1013.27 1013.52 1013.77 1014.04 1014.34 1014.65 1014.94 1015.18 1015.34 1015.40 1015.37 1015.27 1015.13 1015.00 1014.90 1014.86 1014.89 1014.98 1015.12 1015.26 1015.39 1015.48 1015.53 1015.53 1015.49 1015.42
1012.18 1012.94 1013.62 1014.15 1014.41 1014.35 1013.93 1013.19 1012.19 1011.07 1009.95 1008.99 1008.28 1007.91 1007.90 1008.22 1008.79 1009.54 1010.34 1011.12 1011.81 1012.38 1012.83 1013.19 1013.49 1013.77 1014.06 1014.36 1014.66 1014.95 1015.19 1015.35 1015.44 1015.44 1015.37 1015.26 1015.15 1015.07 1015.03 1015.05 1015.12 1015.24 1015.37 1015.50 1015.61 1015.68 1015.71 1015.71 1015.67
1012.00 1012.64 1013.20 1013.61 1013.78 1013.66 1013.24 1012.55 1011.65 1010.63 1009.63 1008.77 1008.13 1007.80 1007.78 1008.06 1008.60 1009.29 1010.06 1010.83 1011.54 1012.15 1012.66 1013.08 1013.43 1013.76 1014.08 1014.39 1014.70 1014.99 1015.24 1015.44 1015.56 1015.61 1015.60 1015.56 1015.50 1015.45 1015.43 1015.45 1015.52 1015.61 1015.72 1015.84 1015.94 1016.02 1016.07 1016.09 1016.08
Thickness
5826 5828 5828 5821 5809 5792 5774 5778 5783 5779 5778 5782 5782 5779 5772 5764 5758 5748 5766 5774 5774 5775 5773 5769 5767 5768 5768 5769 5769 5770 5771 5773 5774 5775 5775 5776 5776 5776 5776 5776 5775 5774 5774 5773 5773 5772 5771 5770 5769
5835 5833 5827 5821 5801 5776 5769 5781 5778 5777 5780 5784 5782 5779 5773 5766 5769 5766 5770 5772 5774 5774 5773 5770 5766 5766 5767 5767 5768 5768 5770 5771 5773 5774 5774 5775 5775 5775 5775 5774 5773 5772 5772 5772 5772 5771 5770 5769 5768
5839 5836 5826 5816 5794 5779 5772 5782 5780 5783 5786 5783 5778 5778 5772 5765 5768 5769 5773 5774 5775 5773 5772 5768 5765 5765 5765 5766 5766 5767 5768 5770 5772 5772 5773 5773 5773 5773 5773 5772 5771 5771 5771 5770 5770 5770 5769 5768 5767
5839 5833 5828 5809 5787 5788 5788 5788 5788 5785 5783 5785 5781 5771 5771 5772 5773 5774 5775 5776 5775 5774 5773 5767 5764 5764 5764 5765 5766 5767 5767 5769 5770 5771 5771 5771 5771 5771 5771 5770 5769 5769 5768 5768 5768 5768 5767 5767 5766
5843 5833 5815 5799 5790 5794 5798 5796 5795 5786 5781 5781 5780 5767 5764 5772 5777 5777 5776 5776 5776 5775 5773 5769 5763 5763 5764 5764 5765 5766 5766 5768 5769 5769 5769 5769 5769 5768 5768 5768 5767 5767 5766 5766 5766 5766 5766 5765 5765
5839 5834 5809 5791 5789 5796 5799 5800 5796 5786 5781 5781 5778 5769 5763 5773 5775 5776 5777 5777 5778 5776 5774 5769 5764 5763 5763 5764 5764 5765 5765 5766 5766 5766 5767 5767 5767 5766 5766 5765 5765 5764 5764 5764 5764 5764 5764 5764 5763
5835 5827 5808 5801 5793 5793 5797 5804 5796 5788 5782 5782 5784 5771 5767 5773 5777 5778 5777 5777 5777 5776 5775 5772 5770 5765 5763 5763 5763 5763 5763 5764 5764 5764 5765 5765 5765 5764 5764 5764 5763 5763 5763 5762 5762 5763 5762 5762 5762
5847 5834 5815 5808 5800 5794 5803 5804 5801 5795 5785 5791 5789 5774 5767 5773 5779 5779 5778 5777 5776 5776 5775 5772 5772 5769 5768 5765 5762 5762 5762 5762 5762 5762 5763 5763 5763 5762 5762 5762 5762 5761 5761 5761 5761 5761 5761 5761 5760
5851 5831 5812 5811 5807 5802 5807 5802 5801 5804 5794 5791 5791 5787 5783 5782 5781 5778 5776 5774 5773 5773 5774 5774 5773 5770 5769 5767 5764 5763 5761 5761 5762 5761 5761 5762 5764 5764 5762 5761 5760 5760 5759 5759 5759 5759 5759 5760 5760
5846 5825 5817 5824 5824 5814 5810 5806 5803 5799 5789 5785 5785 5786 5785 5782 5779 5776 5774 5772 5771 5770 5773 5773 5772 5769 5769 5767 5765 5765 5765 5763 5763 5762 5762 5763 5761 5762 5762 5759 5759 5759 5758 5758 5758 5759 5760 5761 5764
5843 5828 5829 5830 5831 5824 5814 5809 5811 5801 5788 5788 5784 5782 5783 5782 5779 5777 5776 5775 5774 5773 5773 5773 5771 5769 5769 5767 5766 5765 5764 5763 5763 5762 5762 5761 5761 5761 5761 5760 5759 5759 5759 5760 5759 5761 5764 5765 5764
5840 5836 5836 5833 5833 5827 5819 5814 5809 5805 5800 5803 5798 5792 5787 5783 5782 5780 5778 5777 5776 5774 5773 5774 5772 5769 5767 5767 5766 5765 5765 5764 5764 5761 5761 5762 5761 5760 5760 5760 5761 5761 5761 5761 5762 5762 5763 5763 5763
5838 5836 5838 5837 5834 5830 5823 5815 5810 5806 5809 5808 5801 5794 5789 5787 5786 5785 5783 5781 5778 5774 5774 5773 5771 5768 5766 5765 5765 5766 5764 5764 5763 5761 5761 5760 5761 5761 5761 5759 5759 5761 5761 5762 5761 5761 5761 5761 5761
5842 5840 5837 5836 5832 5828 5820 5814 5811 5806 5811 5805 5799 5794 5793 5791 5789 5785 5782 5780 5778 5777 5776 5776 5772 5769 5767 5765 5764 5764 5764 5763 5764 5763 5761 5760 5761 5761 5760 5760 5760 5761 5761 5762 5761 5760 5760 5760 5761
5848 5836 5831 5832 5832 5829 5823 5807 5810 5814 5812 5803 5800 5797 5795 5793 5791 5787 5786 5783 5782 5780 5779 5776 5774 5772 5769 5767 5766 5767 5766 5765 5764 5763 5761 5761 5761 5761 5761 5762 5761 5761 5760 5760 5760 5760 5760 5760 5760
5843 5833 5823 5828 5832 5830 5820 5804 5815 5820 5812 5804 5802 5800 5797 5795 5794 5793 5791 5788 5786 5784 5780 5778 5779 5774 5770 5768 5767 5768 5767 5766 5764 5763 5763 5762 5761 5761 5761 5763 5763 5761 5761 5761 5761 5761 5760 5759 5759
5832 5825 5822 5825 5834 5831 5822 5814 5819 5824 5816 5808 5805 5804 5801 5798 5797 5797 5795 5792 5789 5785 5782 5779 5778 5775 5773 5770 5769 5769 5767 5766 5765 5764 5764 5763 5762 5762 5763 5764 5762 5762 5763 5763 5763 5762 5761 5758 5757
5824 5827 5824 5824 5833 5830 5822 5821 5823 5824 5820 5814 5811 5809 5805 5802 5801 5802 5799 5797 5793 5789 5785 5781 5778 5776 5774 5772 5770 5770 5769 5768 5767 5766 5764 5764 5764 5764 5764 5765 5763 5764 5764 5763 5762 5759 5758 5758 5757
5837 5830 5825 5829 5838 5829 5823 5823 5826 5827 5822 5819 5816 5813 5810 5808 5810 5807 5804 5800 5796 5791 5787 5783 5780 5777 5775 5773 5772 5769 5769 5769 5769 5768 5765 5765 5765 5764 5764 5766 5764 5764 5764 5762 5762 5760 5758 5757 5756
5834 5827 5827 5831 5835 5830 5826 5825 5833 5832 5827 5826 5822 5818 5816 5814 5811 5808 5805 5802 5798 5793 5789 5786 5782 5780 5778 5775 5774 5772 5771 5771 5770 5769 5766 5765 5765 5764 5766 5764 5765 5764 5762 5761 5760 5759 5758 5758 5758
5829 5827 5827 5826 5829 5832 5827 5822 5828 5833 5833 5831 5829 5828 5825 5820 5815 5811 5807 5805 5802 5797 5793 5791 5786 5783 5780 5778 5777 5774 5771 5771 5770 5768 5767 5766 5765 5765 5764 5765 5765 5764 5764 5762 5760 5758 5756 5755 5756
5822 5836 5833 5827 5821 5821 5823 5813 5825 5831 5828 5829 5830 5830 5829 5827 5823 5818 5814 5809 5806 5802 5800 5795 5789 5785 5782 5780 5778 5775 5771 5770 5769 5769 5768 5767 5765 5765 5765 5765 5764 5764 5765 5762 5761 5761 5759 5755 5754
5831 5838 5833 5828 5824 5821 5823 5816 5826 5832 5824 5829 5833 5834 5835 5833 5829 5824 5820 5815 5812 5809 5804 5799 5793 5788 5785 5782 5779 5776 5774 5773 5772 5770 5767 5766 5766 5765 5765 5764 5764 5763 5763 5762 5760 5759 5758 5757 5755
5833 5829 5825 5826 5825 5803 5817 5813 5817 5833 5831 5834 5837 5838 5837 5837 5833 5828 5825 5821 5815 5812 5807 5802 5795 5790 5787 5784 5781 5778 5775 5773 5771 5768 5767 5767 5768 5767 5765 5764 5763 5763 5763 5761 5759 5758 5758 5756 5754
5825 5814 5799 5795 5798 5802 5820 5812 5821 5841 5845 5842 5840 5840 5841 5840 5836 5830 5825 5821 5816 5813 5809 5805 5798 5792 5789 5786 5783 5781 5777 5774 5771 5770 5769 5769 5769 5767 5764 5765 5762 5762 5761 5760 5759 5758 5757 5756 5753
5820 5820 5798 5785 5790 5806 5811 5809 5831 5847 5849 5849 5847 5845 5844 5841 5838 5833 5829 5824 5820 5816 5812 5807 5801 5795 5792 5789 5785 5783 5780 5778 5777 5774 5773 5771 5771 5769 5766 5764 5762 5762 5761 5761 5759 5759 5757 5754 5752
5814 5817 5831 5815 5806 5799 5809 5819 5834 5846 5843 5843 5843 5842 5841 5841 5840 5836 5832 5828 5824 5819 5814 5810 5803 5798 5795 5792 5787 5784 5781 5779 5778 5775 5773 5773 5770 5770 5767 5764 5763 5761 5760 5759 5757 5756 5754 5752 5751
5824 5825 5815 5807 5785 5783 5798 5808 5818 5829 5834 5839 5839 5839 5840 5841 5840 5836 5833 5830 5827 5822 5817 5812 5807 5801 5797 5794 5790 5786 5783 5780 5778 5776 5773 5771 5769 5768 5766 5765 5763 5761 5759 5758 5756 5755 5752 5750 5749
5805 5808 5810 5809 5807 5789 5787 5806 5838 5835 5838 5837 5839 5840 5841 5841 5839 5836 5833 5831 5828 5824 5819 5812 5807 5802 5798 5795 5791 5787 5783 5781 5778 5775 5773 5771 5768 5765 5764 5763 5762 5760 5758 5757 5754 5754 5751 5749 5747
5811 5810 5807 5792 5789 5797 5798 5811 5843 5842 5843 5840 5839 5839 5840 5839 5838 5835 5832 5828 5825 5821 5818 5813 5808 5804 5800 5795 5791 5786 5783 5781 5778 5776 5773 5771 5767 5765 5763 5762 5761 5760 5758 5755 5753 5751 5750 5747 5745